Volver al catálogo

STARLINK-32327

ActivoComunicacionesVLEO
NORAD 61641·PAYLOAD·🇺🇸 United States

Lanzado Oct 23, 2024 desde Cape Canaveral Space Force Station

Loading…

Próximos Pases (próximas 24 horas)

TLE

ActualizadoSource: CelesTrak SupGP

Época: Sep 15, 2026, 01:59 UTC

1 61641C 24191W   26258.08312500 -.00007404  00000+0 -26817-3 0  2588
2 61641  43.0008 164.7350 0001345 274.6024  87.1412 15.27581547    18

Sigue STARLINK-32327 en tiempo real con AllMySat

Download on the App Store